Regional Weather Roundup
Issued by NWS

Home | Current Version | Previous Version | Graphics & Text | Print | Product List | Glossary On
Versions: 1 2 3 4 5 6 7 8 9 10 11 12 13 14 15 16 17 18 19 20 21 22 23 24 25 26 27 28 29 30 31 32 33 34 35 36 37 38 39 40 41 42 43 44 45 46 47 48 49 50
000
ASUS43 KMPX 280901
RWRMN
WEATHER ROUNDUP FOR MINNESOTA
NATIONAL WEATHER SERVICE TWIN CITIES/CHANHASSEN MN
400 AM CDT WED JUN 28 2017


NOTE: "FAIR" INDICATES FEW OR NO CLOUDS BELOW 12,000 FEET WITH NO
SIGNIFICANT WEATHER AND/OR OBSTRUCTIONS TO VISIBILITY. N/A MEANS
CURRENT SKY AND/OR WEATHER CONDITIONS ARE NOT AVAILABLE.

MNZ060>063-068>070-281000-
   Twin Cities Metro

CITY           SKY/WX    TMP DP  RH WIND       PRES   REMARKS
TWIN CITIES    TSTM      64  54  69 S16G26    29.71R
ST PAUL        CLOUDY    66  51  58 S10       29.72R
CRYSTAL        LGT RAIN  67  50  54 S10       29.69R
BLAINE         CLOUDY    68  52  56 S15G21    29.69F
LAKEVILLE      TSTM      59  59 100 CALM      29.74R
EDEN PRAIRIE   LGT RAIN  63  59  87 S12       29.70F
SOUTH ST PAUL  CLOUDY    66  49  53 S7        29.73R
LAKE ELMO      MOCLDY    64  50  59 SW12      29.75R
$$
MNZ001>005-007-008-013>017-022>024-027-028-281000-
   Northwest Minnesota

CITY           SKY/WX    TMP DP  RH WIND       PRES   REMARKS
BEMIDJI        CLOUDY    60  52  75 SE6       29.64R
HALLOCK        DRIZZLE   63  52  67 SE9       29.50F
ROSEAU         CLOUDY    63  54  72 SE6       29.57F
WARROAD        CLOUDY    63  52  67 SE8       29.57F
CROOKSTON      CLOUDY    57  57 100 SE12      29.54F
FOSSTON        CLOUDY    57  55  94 SE10G18   29.61F
DETROIT LAKES  CLOUDY    59  55  88 SE17      29.59F
MOORHEAD       CLOUDY    64  59  82 SE14G21   29.51F
PARK RAPIDS    LGT RAIN  60  52  74 SE8       29.62F
MAHNOMEN       LGT RAIN  59  56  89 E6        29.58F
$$
MNZ006-009>011-018-025>026-281000-
   North Central Minnesota

CITY           SKY/WX    TMP DP  RH WIND       PRES   REMARKS
BAUDETTE       CLOUDY    58  50  75 SE7       29.60F
FLAG ISLAND    CLOUDY    64  50  59 SE8       29.59F
INTL FALLS     CLOUDY    54  46  74 SE8       29.65F
WASKISH        CLOUDY    61  50  67 SE8       29.61F
BIG FORK       CLOUDY    55  46  71 CALM      29.66F
LONGVILLE      CLOUDY    57  52  82 CALM      29.66R
GRAND RAPIDS   CLOUDY    58  46  64 SE7       29.69F
CRANE LAKE     CLOUDY    45  43  93 CALM      29.72
ORR            MOCLDY    54  45  71 SE3       29.66F
COOK           CLOUDY    50  45  81 E3        29.70F
WALKER         CLOUDY    60  50  69 SE5       29.64S
$$
MNZ012-019>021-037-281000-
   Northeast Minnesota

CITY           SKY/WX    TMP DP  RH WIND       PRES   REMARKS
DULUTH         CLOUDY    57  47  69 S7        29.74R
ELY            CLOUDY    46  45  93 CALM      29.73S
HIBBING        CLOUDY    50  45  83 S3        29.71S
EVELETH        CLOUDY    46  43  87 E3        29.72S
DULUTH HARBOR  CLOUDY    63  50  63 SW5       29.74S
TWO HARBORS    CLOUDY    48  45  87 CALM      29.73S
SILVER BAY     CLOUDY    45  45 100 CALM      29.74F
GRAND MARAIS     N/A     47  45  93 NE3       29.78S
G MARAIS ARPRT CLEAR     48  43  81 CALM      29.80R
$$
MNZ029>031-032-039>041-046>048-054>057-064-281000-
   West Central Minnesota

CITY           SKY/WX    TMP DP  RH WIND       PRES   REMARKS
FERGUS FALLS   CLOUDY    64  59  82 SE12G21   29.52F
WHEATON        CLOUDY    66  61  82 E13       29.50R
MORRIS         CLOUDY    64  57  77 SE20      29.52F
ALEXANDRIA     CLOUDY    62  60  93 SE18G26   29.60F
ELBOW LAKE     CLOUDY    63  58  84 E16G24    29.55F
WADENA         CLOUDY    57  54  88 S6        29.62S
GLENWOOD       CLOUDY    63  61  94 SE18G29   29.59F
BENSON         CLOUDY    66  61  82 S14       29.56F
MADISON        LGT RAIN  70  64  83 SE17G24   29.49F
WILLMAR        CLOUDY    63  63 100 SE21G26   29.59F
$$
MNZ033>034-036-042>043-049>051-058-059-281000-
   Central Minnesota

CITY           SKY/WX    TMP DP  RH WIND       PRES   REMARKS
ST CLOUD       LGT RAIN  64  55  72 S14       29.65S
SAUK CENTRE    TSTM      59  58  96 S13       29.65R
PAYNESVILLE    CLOUDY    62  62 100 SE7       29.66S
AITKIN         CLOUDY    57  50  77 SE7       29.66S
PINE RIVER     LGT RAIN  61  52  72 SE6       29.69R
BRAINERD       CLOUDY    63  49  60 SE8       29.65S
STAPLES        CLOUDY    63  48  59 S10G16    29.62F
LONG PRAIRIE   RAIN      59  55  88 E21       29.64S
LITTLE FALLS   CLOUDY    63  48  59 SE7       29.66R
BUFFALO        LGT RAIN  62  58  85 SE8G16    29.69S
MAPLE LAKE     LGT RAIN  64  61  90 S8G17     29.68F
HUTCHINSON     RAIN      63  61  94 SE9       29.67F
$$
MNZ037-044-045-052-053-281000-
   East Central Minnesota

CITY           SKY/WX    TMP DP  RH WIND       PRES   REMARKS
PRINCETON      CLOUDY    64  52  63 SE6       29.67F
MORA           CLOUDY    59  46  63 SE5       29.71S
CAMBRIDGE      CLOUDY    64  50  59 SE8       29.67F
RUSH CITY      CLOUDY    61  48  63 SE7       29.70F
MOOSE LAKE     CLOUDY    61  46  59 S5        29.69F
HINCKLEY       FAIR      61  48  63 SE5       29.72R
CLOQUET        MOCLDY    55  45  67 SE3       29.72S
MCGREGOR       CLOUDY    59  46  63 SE6       29.68F
$$
MNZ071>073-080-081-089-090-097-098-281000-
   Southwest Minnesota

CITY           SKY/WX    TMP DP  RH WIND       PRES   REMARKS
MONTEVIDEO     CLOUDY    66  61  82 S15G21    29.52F
GRANITE FALLS  DRIZZLE   66  62  85 SE17G23   29.55F
CANBY          LGT RAIN  69  64  86 CALM      29.49F
MARSHALL       LGT RAIN  64  62  93 S23G30    29.52F
REDWOOD FALLS  LGT RAIN  64  60  87 S18       29.57F
OLIVIA         CLOUDY    63  59  88 SE13G21   29.58F
PIPESTONE      CLOUDY    66  64  94 SE12      29.56F
WINDOM         TSTM      63  59  88 SE15      29.58F
WORTHINGTON    CLOUDY    62  60  93 E7        29.61F
JACKSON        CLOUDY    63  63 100 SE8       29.60
TRACY          RAIN      64  62  94 S20G31    29.56F
SLAYTON        LGT RAIN  62  61  97 SE18G29   29.63F
$$
MNZ065>067-074>077-082>085-091>093-281000-
   South Central Minnesota

CITY           SKY/WX    TMP DP  RH WIND       PRES   REMARKS
MANKATO        RAIN      64  62  93 S16G23    29.68F
NEW ULM        RAIN      63  63 100 S15       29.62F
ST JAMES       RAIN      64  63  94 SE5       29.65F
FAIRMONT       LGT RAIN  66  65  96 SE17      29.64F
GLENCOE        RAIN      63  62  97 SE9       29.68R
FARIBAULT      CLOUDY    68  57  68 S13G22    29.73R
OWATONNA       CLOUDY    64  57  77 S22G29    29.71R
WASECA         TSTM      63  61  94 S16G24    29.72S
ALBERT LEA     TSTM      61  61 100 S16       29.74S
$$
MNZ078>079-086>088-094>096-281000-
   Southeast Minnesota

CITY           SKY/WX    TMP DP  RH WIND       PRES   REMARKS
ROCHESTER      LGT RAIN  64  54  69 S18G29    29.74F
RED WING       CLOUDY    66  46  48 SE8       29.71F
STANTON          N/A    N/A N/A N/A W14       29.75R
DODGE CENTER   TSTM      66  54  63 S24G31    29.71F
WINONA         CLOUDY    64  50  59 SE7       29.77F
AUSTIN         CLOUDY    63  57  82 S15G30    29.73F
PRESTON        CLOUDY    65  51  58 S18G25    29.77F
$$
ABBREVIATIONS USED IN REMARKS
   TC - TEMPERATURES IN CELSIUS
  WCI - WIND CHILL INDEX
   HX - HEAT INDEX
  VSB - VISIBILITY
$$




USA.gov is the U.S. government's official web portal to all federal, state and local government web resources and services.